User: anonymous   Login
Location: Unspecified
(0.0000°N, 0.0000°E)
Time: 13:38:10
(UTC+00:00)
Language:

JY1SAT - Orbit

View from above orbital plane
View from above orbital plane
View from above satellite
View from above satellite

Ground track
Ground track

The orbit data is extracted from the following two-line orbital elements,

1 43803U 18099AX  19342.88561491  .00000674  00000-0  66159-4 0  9994
2 43803  97.7268  52.5390 0016732 109.7424 250.5603 14.95376496 55307
Epoch (UTC): 08 December 2019 21:15:17
Eccentricity: 0.0016732
inclination: 97.7268°
perigee height: 569 km
apogee height: 593 km
right ascension of ascending node: 52.5390°
argument of perigee: 109.7424°
revolutions per day: 14.95376496
mean anomaly at epoch: 250.5603°
orbit number at epoch: 5530

The dashed part of the orbit path shows where the satellite is in the earth's shadow,  

DLR